Weather in Kazanovka

Russia / Tula Oblast     53°45′20″N   38°34′31″E
temp.,
°C
wind,
m/s
gust,
m/s
humid.,
%
clouds,
%
prec.,
mm/h
press.,
hPa
HPBL,
m
19 may, wed
wed1900:00+17sse49804 0.1 1004225
03:00+15sse349465 0.1 100577
06:00+15sse499473 0.5 1006375
09:00+18sse577636 0.5 1006867
12:00+21sse686085 0.1 10071663
15:00+22se695735 0.1 10071890
18:00+19sse5972100 0.5 1007798
21:00+15se3108913 1.8 1007412
20 may, thu
thu2000:00+14se51392100 0.0 1006486
03:00+12se5992100 0.0 1006408
06:00+12se5119384 0.0 1006441
09:00+15sse798088 0.1 1006932
12:00+15sse7108190 0.9 10061022
15:00+16s7107390 1.4 10061207
18:00+14ssw4878100 0.3 1006586
21:00+12sse379273 0.3 1006146
21 may, fri
fri2100:00+11sw499612 0.0 1007319
03:00+11sw61088100 0.1 1007700
06:00+11sw61192100 0.1 1008680
09:00+11w6989100 0.1 1011735
12:00+13wnw5779100 0.1 1013903
15:00+15nw476661 0.1 10151165
18:00+17nw1361100 0.0 10161470
21:00+13ssw2272100 0.0 101719
22 may, sat
sat2200:00+11ssw2278100 0.0 101818
03:00+10wnw228365 0.0 101910
06:00+11nne2384100 0.0 101996
09:00+15e3472100 0.0 1019485
12:00+14ese4576100 0.0 1019689
15:00+15ese4479100 0.1 1018747
18:00+15e3379100 0.1 1017655
21:00+12ene3695100 0.1 1017121
23 may, sun
sun2300:00+11e3897100 0.0 1017188
03:00+11ene41097100 0.0 1015265
06:00+11ne4894100 0.0 1014260
09:00+16e6785100 0.0 1011428
12:00+20se6879100 0.6 1009802
15:00+20sse5783100 0.9 1007777
18:00+18s3795100 0.3 1005275
21:00+16sw399694 0.3 1004262